Location: Ayer Observatory
(42.2600°N, 71.0700°W)
Time: 13:22:20
(UTC-04:00)

FO-29 - Pass Details

Date: 30 August 2019
Orbit: 801 x 1321 km, 98.6° (Epoch: 15 October)

Event Time Altitude Azimuth Distance (km) Brightness Sun altitude
Exits shadow 03:40:55 63° 271° (W) 893 9.0 -24.8°
Drops below altitude 10° 03:45:54 10° 340° (NNW) 2,392 11.8 -24.1°
Sets 03:48:16 0° 344° (NNW) 3,345 12.6 -23.8°
